Newton, NJ

8:53 PM EST on February 24, 2017 (GMT -0500)
Andover

Weather History for K12N - January, 2013

Change the Weather History Date:

Monday, January 7, 2013

  Actual Average (KFWN) Record (KFWN)
Temperature  
Mean Temperature 32 °F -  
Max Temperature 42 °F 34 °F 63 °F (2008)
Min Temperature 21 °F 15 °F -3 °F (1968)
Degree Days  
Heating Degree Days 34    
Moisture  
Dew Point 23 °F    
Average Humidity 73    
Maximum Humidity 92    
Minimum Humidity 41    
Precipitation  
Precipitation 0.06 in - - ()
Sea Level Pressure  
Sea Level Pressure 30.31 in    
Wind  
Wind Speed 1 mph (WNW)    
Max Wind Speed 8 mph    
Max Gust Speed -    
Averages and records for this station are not official NWS values.
T = Trace of Precipitation, MM = Missing Value Source: NWS Daily Summary

Daily Weather History Graph

Daily Weather History Graph

Search for Another Location

Airport or City:

Trip Planner

Search our weather history database for the weather conditions in past years. The results will help you decide how hot, cold, wet, or windy it might be!

Date:

Astronomy

Jan. 07, 2013 Rise Set
Actual Time 7:23 AM EST 4:47 PM EST
Civil Twilight 6:53 AM EST 5:17 PM EST
Nautical Twilight 6:18 AM EST 5:52 PM EST
Astronomical Twilight 5:45 AM EST 6:25 PM EST
Moon 2:44 AM EST (1/7) 12:56 PM EST (1/7)
Length of Visible Light 10h 24m
Length of Day
9h 23m
Waning Crescent, 23% of the Moon is Illuminated
Jan 7
Waning Crescent
Jan 11
New
Jan 18
First Quarter
Jan 26
Full
Feb 3
Last Quarter

Hourly Weather History & Observations

Time (EST) Temp. Windchill Dew Point Humidity Pressure Visibility Wind Dir Wind Speed Gust Speed Precip Events Conditions
12:54 AM 27.0 °F - 24.1 °F 89% 30.09 in - Calm Calm - N/A   Unknown
1:54 AM 27.0 °F - 24.1 °F 89% 30.11 in - Calm Calm - N/A   Unknown
2:54 AM 26.1 °F - 23.0 °F 88% 30.13 in - Calm Calm - N/A   Unknown
3:54 AM 28.9 °F - 26.1 °F 89% 30.14 in - Calm Calm - N/A   Unknown
4:54 AM 30.9 °F - 27.0 °F 85% 30.17 in - Calm Calm - N/A   Unknown
5:54 AM 30.9 °F - 28.0 °F 89% 30.20 in - Calm Calm - N/A   Unknown
6:54 AM 30.0 °F - 27.0 °F 88% 30.23 in - Calm Calm - 0.02 in   Unknown
7:54 AM 30.0 °F - 27.0 °F 88% 30.27 in - Calm Calm - 0.02 in   Unknown
8:54 AM 33.1 °F - 28.0 °F 82% 30.30 in - Calm Calm - N/A   Unknown
9:54 AM 37.9 °F - 24.1 °F 57% 30.34 in - Calm Calm - N/A   Unknown
10:54 AM 39.9 °F 35.8 °F 21.9 °F 49% 30.35 in - NW 5.8 mph - N/A   Unknown
11:54 AM 41.0 °F 36.4 °F 21.0 °F 45% 30.36 in - Variable 6.9 mph - N/A   Unknown
12:54 PM 41.0 °F 35.8 °F 21.0 °F 45% 30.35 in - WNW 8.1 mph - N/A   Unknown
1:54 PM 42.1 °F 40.2 °F 19.9 °F 41% 30.37 in - Variable 3.5 mph - N/A   Unknown
2:54 PM 41.0 °F 37.1 °F 19.9 °F 43% 30.37 in - Variable 5.8 mph - N/A   Unknown
3:54 PM 41.0 °F - 19.9 °F 43% 30.39 in - Calm Calm - N/A   Unknown
4:54 PM 35.1 °F - 21.0 °F 57% 30.41 in - Calm Calm - N/A   Unknown
5:54 PM 30.9 °F - 21.9 °F 69% 30.40 in - Calm Calm - N/A   Unknown
6:54 PM 28.0 °F - 23.0 °F 81% 30.40 in - Calm Calm - N/A   Unknown
7:54 PM 26.1 °F - 21.9 °F 84% 30.41 in - Calm Calm - N/A   Unknown
8:54 PM 25.0 °F 20.7 °F 21.9 °F 88% 30.41 in - SSE 3.5 mph - N/A   Unknown
9:54 PM 25.0 °F - 19.9 °F 81% 30.40 in - Calm Calm - N/A   Unknown
10:54 PM 21.9 °F - 19.9 °F 92% 30.40 in - Calm Calm - 0.02 in   Unknown
11:54 PM 21.9 °F - 19.0 °F 89% 30.40 in - Calm Calm - N/A   Unknown